This is the latest recevied weather packets stored in our database for station/object N5SRF. If no packets are shown the sender has not sent any weather packets the latest 10 day(s).
| Time | Temp. | Humidity | Pressure | Rain* | Wind** | Luminosity | Snow |
|---|---|---|---|---|---|---|---|
| 1787869233 | 33.89° C | 63% | 1015.9 hPa | 0 mm | - | 101 W/m² | - |
| 1787868926 | 34.44° C | 63% | 1016.1 hPa | 0 mm | - | 182 W/m² | - |
| 1787868621 | 35° C | 61% | 1015.9 hPa | 0 mm | - | 201 W/m² | - |
| 1787868319 | 34.44° C | 61% | 1015.9 hPa | 0 mm | - | 421 W/m² | - |
| 1787868014 | 33.89° C | 63% | 1015.6 hPa | 0 mm | - | 437 W/m² | - |
| 1787867709 | 33.89° C | 62% | 1015.6 hPa | 0 mm | - | 457 W/m² | - |
| 1787867404 | 33.33° C | 63% | 1015.7 hPa | 0 mm | - | 490 W/m² | - |
| 1787867100 | 32.78° C | 65% | 1016.1 hPa | 0 mm | - | 497 W/m² | - |
| 1787866795 | 32.22° C | 67% | 1016 hPa | 0 mm | - | 311 W/m² | - |
| 1787866495 | 32.22° C | 68% | 1016 hPa | 0 mm | - | 172 W/m² | - |
| 1787866193 | 32.78° C | 67% | 1016.2 hPa | 0 mm | - | 175 W/m² | - |
| 1787865888 | 32.22° C | 68% | 1016.4 hPa | 0 mm | - | 183 W/m² | - |
| 1787865583 | 32.22° C | 68% | 1016.6 hPa | 0 mm | - | 193 W/m² | - |
| 1787865277 | 32.22° C | 67% | 1016.3 hPa | 0 mm | - | 194 W/m² | - |
| 1787864974 | 31.67° C | 68% | 1016.5 hPa | 0 mm | - | 179 W/m² | - |
| 1787864670 | 31.67° C | 68% | 1016.5 hPa | 0 mm | - | 155 W/m² | - |
| 1787864363 | 32.22° C | 67% | 1016.6 hPa | 0 mm | - | 142 W/m² | - |
| 1787864058 | 32.78° C | 67% | 1016.2 hPa | 0 mm | - | 131 W/m² | - |
| 1787863756 | 32.78° C | 66% | 1016.1 hPa | 0 mm | - | 128 W/m² | - |
| 1787863455 | 33.33° C | 64% | 1016.5 hPa | 0 mm | - | 126 W/m² | - |
| 1787863152 | 33.89° C | 62% | 1016.8 hPa | 0 mm | - | 127 W/m² | - |
| 1787862847 | 33.89° C | 61% | 1016.8 hPa | 0 mm | - | 130 W/m² | - |
| 1787862547 | 33.89° C | 60% | 1016.5 hPa | 0 mm | - | 136 W/m² | - |
| 1787862242 | 33.89° C | 59% | 1016.9 hPa | 0 mm | - | 145 W/m² | - |
| 1787861936 | 34.44° C | 58% | 1016.9 hPa | 0 mm | - | 145 W/m² | - |
* Rain latest hour (hover to see other rain measurements)
** Current wind speed in m/s (hover to see current wind gust speed)